CloseHelpProblem

Lions Burley Spudman

07/28/07


PlBibName RepresentingAge Division Interval TimeTime BackTotal Time
1703Greg TAYLERHEBER CITY UT USA06 M 40 - 4400:38:46.250+00:00:00.0001:52:02.000
2675Rex SHUPEKAYSVILLE UT USA06 M 40 - 4400:41:01.660+00:02:15.4101:58:57.290
3621Michael MAMALESSALT LAKE CITY UT USA06 M 40 - 4400:41:14.770+00:02:28.5201:56:27.310
4656Adam DEWAALSLC UT USA06 M 40 - 4400:43:30.000+00:04:43.7502:06:44.390
5698Conrad SMITHSANDY UT USA06 M 40 - 4400:44:52.200+00:06:05.9502:20:55.830
6681Dirk JEFFSDRAPER UT USA06 M 40 - 4400:45:48.870+00:07:02.6202:09:28.560
7692Doug EVANSKAYSVILLE UT USA06 M 40 - 4400:45:50.770+00:07:04.5202:23:52.130
8641Dave SHARPSALT LAKE CITY UT USA06 M 40 - 4400:46:22.600+00:07:36.3502:09:53.410
9664Chris HARDSALT LAKE CITY UT USA06 M 40 - 4400:46:25.490+00:07:39.2402:10:53.290
10737Ian SPENCERRIVERTON UT USA06 M 40 - 4400:46:38.400+00:07:52.1502:25:53.390
11711Brad MERTZSPRINGVILLE UT USA06 M 40 - 4400:46:51.260+00:08:05.0102:20:58.040
12702Carl VAN GILSST. GEORGE UT USA06 M 40 - 4400:47:00.680+00:08:14.4302:13:52.790
13734Bart CONRADJACKSON WY USA06 M 40 - 4400:47:04.300+00:08:18.0502:11:33.830
14659Curtis EVANSSOUTH JORDAN UT USA06 M 40 - 4400:47:18.730+00:08:32.4802:32:12.700
15723Dan SORENSENSALT LAKE CITY UT USA06 M 40 - 4400:47:26.190+00:08:39.9402:27:47.240
16628Jeff DOLLOFF-HOLTWEST VALLEY CITY UT USA06 M 40 - 4400:48:03.600+00:09:17.3502:09:43.090
17742Steve OSTLERSALT LAKE CITY UT USA06 M 40 - 4400:48:05.720+00:09:19.4702:27:02.910
18651Mahana FISHERBLANDING UT USA06 M 40 - 4400:48:10.040+00:09:23.7902:11:44.020
19709Daniel HARPERPROVO UT USA06 M 40 - 4400:49:24.330+00:10:38.0802:22:35.570
20710William TINGEYKAYSVILLE UT USA06 M 40 - 4400:49:36.070+00:10:49.8202:21:42.680
21678Karl LINCOLNSANDY UT USA06 M 40 - 4400:49:54.150+00:11:07.9002:18:01.210
22629Robert PODGORNEYIDAHO FALLS ID USA06 M 40 - 4400:49:57.360+00:11:11.1102:23:52.490
23670Phillip GOOLDDRAPER UT USA06 M 40 - 4400:50:48.830+00:12:02.5802:23:34.970
24685John KIMBALLSALT LAKE CITY UT USA06 M 40 - 4400:50:57.740+00:12:11.4902:14:13.940
25694Jon MOENEW YORK NY USA06 M 40 - 4400:51:11.040+00:12:24.7902:27:46.220
26662Jeff CLEGGJEROME ID USA06 M 40 - 4400:51:49.200+00:13:02.9502:27:14.100
27640Miles MCCRACKENALPINE UT USA06 M 40 - 4400:51:54.510+00:13:08.2602:20:20.760
28643Dan ALDREDBOISE ID USA06 M 40 - 4400:52:01.230+00:13:14.9802:25:37.380
29649Scott STEINSALT LAKE CITY UT USA06 M 40 - 4400:52:11.830+00:13:25.5802:21:28.790
30733Rick MCCORDALPINE UT USA06 M 40 - 4400:52:13.220+00:13:26.9702:36:40.170
31622Dixon HOLMESPROVO UT USA06 M 40 - 4400:52:27.960+00:13:41.7102:28:26.300
32631Steven BERRYOREM UT USA06 M 40 - 4400:53:04.120+00:14:17.8702:21:51.990
33663Randy SCOTTSOUTH JORDAN UT USA06 M 40 - 4400:53:05.040+00:14:18.7902:21:52.050
34705Joseph MULLINSPOCATELLO ID USA06 M 40 - 4400:53:06.240+00:14:19.9902:32:45.030
35674Paul KORTHWEST JORDAN UT USA06 M 40 - 4400:53:15.670+00:14:29.4202:27:45.790
36677Brian HALLBOUNTIFUL UT USA06 M 40 - 4400:53:46.400+00:15:00.1502:37:22.880
37654Mark ROYLANCEFRUIT HEIGHTS UT USA06 M 40 - 4400:53:47.000+00:15:00.7502:31:45.970
38665Bob ZANETTIPARK CITY UT USA06 M 40 - 4400:54:15.890+00:15:29.6402:23:37.510
39637Dave ASHBYSPRINGVILLE UT USA06 M 40 - 4400:54:20.960+00:15:34.7102:21:33.950
40682Dale CRANNEYMIDWAY UT USA06 M 40 - 4400:54:38.960+00:15:52.7102:25:18.160
41691Lonnie HUNTERDRAPER UT USA06 M 40 - 4400:54:46.160+00:15:59.9102:28:54.770
42715Mick DAINESROY UT USA06 M 40 - 4400:55:08.960+00:16:22.7102:34:10.560
43732Todd BARNEYALPINE UT USA06 M 40 - 4400:55:16.940+00:16:30.6902:41:34.020
44652Kurt FLYGAREALPINE UT USA06 M 40 - 4400:55:17.670+00:16:31.4202:33:42.460
45699Bradley WILLIAMSTWIN FALLS ID USA06 M 40 - 4400:55:22.330+00:16:36.0802:25:35.300
46736Tom STOCKHAMHOLLADAY UT USA06 M 40 - 4400:55:31.380+00:16:45.1302:22:32.350
47684Coray TATEOREM UT USA06 M 40 - 4400:55:45.040+00:16:58.7902:43:00.200
48741Glen ALLENBURLEY ID USA06 M 40 - 4400:55:54.270+00:17:08.0202:25:00.950
49683Robert TIMPANYRIGBY ID USA06 M 40 - 4400:56:03.840+00:17:17.5902:30:09.480
50636Todd GROLLFARMINGTON UT USA06 M 40 - 4400:56:10.620+00:17:24.3702:44:50.310
51714Bret REICHSANDY UT USA06 M 40 - 4400:56:21.830+00:17:35.5802:35:00.620
52660Glen GUYMONROSEVILLE CA USA06 M 40 - 4400:56:32.210+00:17:45.9602:32:08.150
53739Temp PATTERSONBURLEY ID USA06 M 40 - 4400:56:49.030+00:18:02.7802:26:13.200
54745R THOMPSONSALT LAKE CITY UT USA06 M 40 - 4400:57:02.740+00:18:16.4902:46:54.550
55706Kyle HARWARDFARMINGTON UT USA06 M 40 - 4400:57:46.690+00:19:00.4402:46:55.050
56726Gregg GREERDRAPER UT USA06 M 40 - 4400:57:55.730+00:19:09.4802:29:32.960
57708Gordon GARRETTLAYTON UT USA06 M 40 - 4400:58:07.730+00:19:21.4802:33:39.340
58648Jared DOWDLECHANDLER AZ USA06 M 40 - 4400:58:28.250+00:19:42.0002:49:57.840
59630Scott GLENNSTANSBURY PARK UT USA06 M 40 - 4400:59:00.430+00:20:14.1802:31:14.220
60638Bart HANSONRUPERT ID USA06 M 40 - 4400:59:10.720+00:20:24.4702:41:18.820
61672Fred STURGELLHENDERSON CO USA06 M 40 - 4400:59:54.750+00:21:08.5002:51:59.660
62740Dominic BRIALEHI UT USA06 M 40 - 4401:00:04.340+00:21:18.0902:47:33.910
63743David COOKPARK CITY UT USA06 M 40 - 4401:00:04.970+00:21:18.7202:30:52.140
64676Claes HORNSTRANDTHOUSAND OAKS CA USA06 M 40 - 4401:00:31.400+00:21:45.1502:31:50.810
65633Mike GARNERDECLO ID USA06 M 40 - 4401:01:07.750+00:22:21.5002:36:09.530
66735J Lance DOWDLESHERWOOD OR USA06 M 40 - 4401:01:12.110+00:22:25.8602:47:49.980
67644Craig WARDSALT LAKE CITY SD USA06 M 40 - 4401:02:00.170+00:23:13.9202:38:33.910
68666Rich AGRENSOUTH JORDAN UT USA06 M 40 - 4401:02:19.810+00:23:33.5602:36:32.180
69669Alan JOHNSONCEDAR HILLS UT USA06 M 40 - 4401:02:47.800+00:24:01.5502:50:09.000
701643Rob ANDRALEHI UT USA06 M 40 - 4401:02:50.120+00:24:03.8702:45:10.500
71624Robert BAKERLINDON UT USA06 M 40 - 4401:03:08.410+00:24:22.1602:50:08.870
72746Adam HOWARDLAYTON UT USA06 M 40 - 4401:04:12.100+00:25:25.8502:41:13.020
73671Nate ALDERSALT LAKE CITY UT USA06 M 40 - 4401:04:24.990+00:25:38.7402:46:25.500
74679Todd RUSHTONRUPERT ID USA06 M 40 - 4401:04:26.240+00:25:39.9902:52:34.740
75713Brent DIXONSHERWOOD OR USA06 M 40 - 4401:05:30.830+00:26:44.5802:50:20.940
76635John MORGANOREM UT USA06 M 40 - 4401:05:49.630+00:27:03.3803:11:32.280
77625Roger THOMSALT LAKE CITY UT USA06 M 40 - 4401:06:29.560+00:27:43.3102:53:35.320
78687Todd WATTSST. GEORGE UT USA06 M 40 - 4401:07:36.920+00:28:50.6702:46:01.150
79632Scott FROGLEYDRAPER UT USA06 M 40 - 4401:07:43.940+00:28:57.6902:45:39.350
80696Roger DAYTONOREM UT USA06 M 40 - 4401:08:26.420+00:29:40.1702:54:32.200
81645Richard MATHESONLINDON UT USA06 M 40 - 4401:09:10.040+00:30:23.7902:48:56.480
82623Cody LASLEYSYRACUSE UT USA06 M 40 - 4401:09:37.470+00:30:51.2202:51:31.890
83642David WARDSPOKANE WA USA06 M 40 - 4401:10:51.990+00:32:05.7403:11:27.890
84712Jeff THOMASDRAPER UT USA06 M 40 - 4401:10:54.410+00:32:08.1602:49:03.110
85725Thomas LINDSEYSPRINGVILLE UT USA06 M 40 - 4401:11:02.690+00:32:16.4402:54:58.490
86704Scott MERVINSALT LAKE CITY UT USA06 M 40 - 4401:13:12.040+00:34:25.7902:56:32.930
87730Kent HANSENSANDY UT USA06 M 40 - 4401:17:50.650+00:39:04.4003:25:17.480
88655Carl PETERSONSANDY UT USA06 M 40 - 4401:18:05.730+00:39:19.4802:54:20.110
89722Roger TAYLORLEHI UT USA06 M 40 - 4401:19:15.170+00:40:28.9203:14:07.160
90818Scott ROGERSRUPERT ID USA06 M 40 - 4401:33:08.190+00:54:21.9403:43:30.310
911640Tom KITCHENPLEASANT GROVE UT USA06 M 40 - 4401:34:54.780+00:56:08.5303:36:17.450